| time (UTC) | temp F | wind direction | speed MPH | gust MPH | rain 1hr in | rain 24hr in | rain mn in | humidity % | barometer mb |
| 20260508021516 | 65 | 70 | 2.0 | 4.0 | 0.00 | 0.00 | 0.00 | 77 | 1014.4 |
| 20260508020028 | 65 | 18 | 0.0 | 5.0 | 0.00 | 0.00 | 0.00 | 76 | 1014.7 |
| 20260508014521 | 65 | 355 | 2.0 | 5.0 | 0.00 | 0.00 | 0.00 | 76 | 1014.7 |
| 20260508013002 | 66 | 13 | 0.0 | 5.0 | 0.00 | 0.00 | 0.00 | 75 | 1015.0 |
| 20260508011507 | 66 | 352 | 3.0 | 6.0 | 0.00 | 0.00 | 0.00 | 74 | 1014.7 |
| 20260508010011 | 67 | 6 | 3.0 | 7.0 | 0.00 | 0.00 | 0.00 | 74 | 1014.5 |
| 20260508004513 | 67 | 7 | 3.0 | 9.0 | 0.00 | 0.00 | 0.00 | 73 | 1014.6 |
| 20260508003017 | 68 | 27 | 3.0 | 9.0 | 0.00 | 0.00 | 0.00 | 73 | 1014.8 |
| 20260508001501 | 68 | 6 | 2.0 | 8.0 | 0.00 | 0.00 | 0.00 | 72 | 1014.7 |
| 20260508000006 | 69 | 1 | 3.0 | 8.0 | 0.00 | 0.00 | 0.00 | 72 | 1014.9 |
| 20260507234510 | 70 | 354 | 5.0 | 11.0 | 0.00 | 0.00 | 0.00 | 70 | 1014.8 |
| 20260507233017 | 70 | 6 | 6.0 | 10.0 | 0.00 | 0.00 | 0.00 | 69 | 1014.9 |
| 20260507231517 | 71 | 353 | 7.0 | 12.0 | 0.00 | 0.00 | 0.00 | 68 | 1014.9 |
| 20260507230006 | 72 | 349 | 4.0 | 11.0 | 0.00 | 0.00 | 0.00 | 68 | 1014.6 |
| 20260507224507 | 73 | 34 | 5.0 | 9.0 | 0.00 | 0.00 | 0.00 | 67 | 1014.7 |
| 20260507223011 | 73 | 351 | 5.0 | 11.0 | 0.00 | 0.00 | 0.00 | 69 | 1014.8 |
| 20260507221518 | 73 | 20 | 4.0 | 12.0 | 0.00 | 0.00 | 0.00 | 69 | 1014.7 |
| 20260507220035 | 74 | 59 | 5.0 | 14.0 | 0.00 | 0.00 | 0.00 | 67 | 1014.2 |
| 20260507201509 | 73 | 62 | 6.0 | 13.0 | 0.00 | 0.00 | 0.00 | 70 | 1015.3 |
| 20260507200018 | 72 | 61 | 8.0 | 13.0 | 0.00 | 0.00 | 0.00 | 71 | 1015.4 |
| 20260507184516 | 71 | 352 | 6.0 | 13.0 | 0.00 | 0.00 | 0.00 | 70 | 1016.3 |
| 20260507181522 | 69 | 14 | 4.0 | 13.0 | 0.00 | 0.00 | 0.00 | 74 | 1016.8 |
| 20260507174511 | 66 | 352 | 2.0 | 14.0 | 0.00 | 0.00 | 0.00 | 78 | 1017.4 |
| 20260507173019 | 66 | 354 | 11.0 | 18.0 | 0.00 | 0.00 | 0.00 | 77 | 1017.1 |
| 20260507170039 | 66 | 60 | 8.0 | 17.0 | 0.00 | 0.00 | 0.00 | 77 | 1017.7 |
| 20260507161503 | 63 | 11 | 6.0 | 10.0 | 0.00 | 0.00 | 0.00 | 82 | 1017.6 |
| 20260507160003 | 62 | 49 | 2.0 | 8.0 | 0.00 | 0.00 | 0.00 | 83 | 1017.6 |
| 20260507154507 | 62 | 356 | 6.0 | 11.0 | 0.00 | 0.00 | 0.00 | 83 | 1017.5 |
| 20260507153013 | 62 | 359 | 4.0 | 10.0 | 0.00 | 0.00 | 0.00 | 83 | 1017.5 |
| 20260507150007 | 61 | 39 | 4.0 | 11.0 | 0.00 | 0.00 | 0.00 | 83 | 1016.6 |
| 20260507143009 | 61 | 68 | 7.0 | 17.0 | 0.00 | 0.00 | 0.00 | 84 | 1016.3 |
| 20260507141513 | 61 | 347 | 9.0 | 21.0 | 0.00 | 0.00 | 0.00 | 84 | 1016.1 |
| 20260507140018 | 61 | 358 | 9.0 | 18.0 | 0.00 | 0.00 | 0.00 | 86 | 1016.7 |
| 20260507134504 | 61 | 5 | 9.0 | 18.0 | 0.00 | 0.00 | 0.00 | 86 | 1016.8 |
| 20260507133006 | 61 | 20 | 4.0 | 16.0 | 0.00 | 0.00 | 0.00 | 86 | 1016.8 |
| 20260507131514 | 61 | 45 | 5.0 | 17.0 | 0.00 | 0.00 | 0.00 | 86 | 1016.6 |
| 20260507130017 | 61 | 357 | 5.0 | 14.0 | 0.00 | 0.00 | 0.00 | 86 | 1016.5 |
| 20260507124521 | 61 | 351 | 2.0 | 14.0 | 0.00 | 0.00 | 0.00 | 86 | 1016.7 |
| 20260507123006 | 61 | 332 | 7.0 | 15.0 | 0.00 | 0.00 | 0.00 | 86 | 1016.5 |
| 20260507121512 | 62 | 343 | 6.0 | 16.0 | 0.00 | 0.00 | 0.00 | 86 | 1016.7 |
| 20260507114521 | 62 | 38 | 5.0 | 12.0 | 0.00 | 0.00 | 0.00 | 86 | 1015.4 |
| 20260507113020 | 62 | 351 | 3.0 | 14.0 | 0.00 | 0.00 | 0.00 | 86 | 1015.2 |
| 20260507111507 | 62 | 4 | 6.0 | 13.0 | 0.00 | 0.00 | 0.00 | 85 | 1015.3 |
| 20260507110012 | 62 | 1 | 6.0 | 12.0 | 0.00 | 0.00 | 0.00 | 85 | 1015.2 |
| 20260507104515 | 62 | 20 | 5.0 | 14.0 | 0.00 | 0.00 | 0.00 | 85 | 1015.0 |
| 20260507103023 | 62 | 13 | 4.0 | 9.0 | 0.00 | 0.00 | 0.00 | 85 | 1014.9 |
| 20260507101525 | 62 | 336 | 2.0 | 7.0 | 0.00 | 0.00 | 0.00 | 85 | 1014.9 |
| 20260507100009 | 62 | 27 | 2.0 | 6.0 | 0.00 | 0.00 | 0.00 | 85 | 1014.8 |
| 20260507094514 | 62 | 346 | 3.0 | 10.0 | 0.00 | 0.00 | 0.00 | 84 | 1014.6 |
| 20260507093018 | 62 | 4 | 0.0 | 6.0 | 0.00 | 0.00 | 0.00 | 84 | 1014.6 |
| 20260507091523 | 62 | 347 | 2.0 | 8.0 | 0.00 | 0.00 | 0.00 | 84 | 1014.3 |
| 20260507090024 | 63 | 36 | 3.0 | 7.0 | 0.00 | 0.00 | 0.00 | 84 | 1014.1 |
| 20260507084513 | 63 | 357 | 3.0 | 7.0 | 0.00 | 0.00 | 0.00 | 84 | 1013.9 |
| 20260507083016 | 62 | 40 | 4.0 | 9.0 | 0.00 | 0.00 | 0.00 | 84 | 1013.9 |
| 20260507081534 | 63 | 37 | 6.0 | 11.0 | 0.00 | 0.00 | 0.00 | 83 | 1014.1 |
| 20260507080024 | 62 | 11 | 4.0 | 9.0 | 0.00 | 0.00 | 0.00 | 84 | 1014.3 |
| 20260507074544 | 62 | 30 | 3.0 | 10.0 | 0.00 | 0.00 | 0.00 | 83 | 1014.4 |
| 20260507073011 | 62 | 49 | 3.0 | 11.0 | 0.00 | 0.00 | 0.00 | 83 | 1014.3 |
| 20260507071513 | 63 | 353 | 6.0 | 13.0 | 0.00 | 0.00 | 0.00 | 83 | 1014.5 |
| 20260507070021 | 63 | 26 | 4.0 | 13.0 | 0.00 | 0.00 | 0.00 | 82 | 1014.4 |
| 20260507064523 | 63 | 35 | 6.0 | 14.0 | 0.00 | 0.00 | 0.00 | 82 | 1014.6 |
| 20260507063028 | 63 | 356 | 6.0 | 12.0 | 0.00 | 0.00 | 0.00 | 82 | 1014.5 |
| 20260507061513 | 63 | 21 | 4.0 | 15.0 | 0.00 | 0.00 | 0.00 | 82 | 1015.0 |
| 20260507060016 | 63 | 15 | 5.0 | 11.0 | 0.00 | 0.00 | 0.00 | 82 | 1014.8 |
| 20260507054521 | 63 | 352 | 6.0 | 14.0 | 0.00 | 0.00 | 0.00 | 82 | 1014.9 |
| 20260507053024 | 63 | 4 | 6.0 | 17.0 | 0.00 | 0.00 | 0.00 | 82 | 1014.8 |
| 20260507051525 | 63 | 339 | 3.0 | 9.0 | 0.00 | 0.00 | 0.00 | 82 | 1014.2 |
| 20260507050025 | 63 | 4 | 8.0 | 15.0 | 0.00 | 0.00 | 0.00 | 81 | 1014.0 |
| 20260507044519 | 64 | 324 | 6.0 | 13.0 | 0.00 | 0.00 | 0.00 | 82 | 1014.5 |
| 20260507043023 | 64 | 17 | 5.0 | 13.0 | 0.00 | 0.00 | 0.00 | 82 | 1014.4 |
| 20260507041510 | 64 | 22 | 6.0 | 11.0 | 0.00 | 0.00 | 0.00 | 82 | 1014.2 |
| 20260507040013 | 64 | 351 | 4.0 | 13.0 | 0.00 | 0.00 | 0.00 | 82 | 1014.4 |
| 20260507034516 | 64 | 351 | 3.0 | 13.0 | 0.00 | 0.00 | 0.00 | 82 | 1014.4 |
| 20260507033023 | 64 | 345 | 2.0 | 14.0 | 0.00 | 0.00 | 0.00 | 82 | 1013.9 |
| 20260507031523 | 64 | 13 | 2.0 | 11.0 | 0.00 | 0.00 | 0.00 | 82 | 1013.8 |
| 20260507030008 | 64 | 347 | 2.0 | 10.0 | 0.00 | 0.00 | 0.00 | 82 | 1013.6 |
| 20260507024513 | 64 | 339 | 7.0 | 14.0 | 0.00 | 0.00 | 0.00 | 81 | 1013.4 |
| 20260507023016 | 64 | 349 | 6.0 | 13.0 | 0.00 | 0.00 | 0.00 | 81 | 1013.0 |